Time,TemperatureF,DewpointF,PressureIn,WindDirection,WindDirectionDegrees,WindSpeedMPH,WindSpeedGustMPH,Humidity,HourlyPrecipIn,Conditions,Clouds,dailyrainin,SoftwareType,DateUTC
2013-03-06 00:07:00,36.2,31.5,29.83,North,360,0.0,0.0,83,0.00,,OVC048,0.00,VWS V14.01,2013-03-06 05:07:00,
2013-03-06 00:08:00,35.8,32.3,29.83,North,360,0.0,0.0,87,0.00,,OVC048,0.00,VWS V14.01,2013-03-06 05:08:00,
2013-03-06 00:13:00,35.2,32.3,29.83,North,360,0.0,0.0,89,0.00,,OVC048,0.00,VWS V14.01,2013-03-06 05:13:00,
2013-03-06 00:18:00,35.0,32.7,29.82,North,360,0.0,0.0,91,0.00,,OVC048,0.00,VWS V14.01,2013-03-06 05:18:00,
2013-03-06 00:23:00,34.7,32.7,29.82,North,360,0.0,0.0,92,0.00,,OVC048,0.00,VWS V14.01,2013-03-06 05:23:00,
2013-03-06 00:33:00,34.5,32.8,29.81,North,360,0.0,0.0,94,0.00,,OVC048,0.00,VWS V14.01,2013-03-06 05:33:00,
2013-03-06 00:38:00,34.4,32.7,29.80,North,360,0.0,0.0,94,0.00,,OVC048,0.00,VWS V14.01,2013-03-06 05:38:00,
2013-03-06 00:43:00,34.2,32.8,29.80,North,360,0.0,0.0,95,0.00,,OVC048,0.00,VWS V14.01,2013-03-06 05:43:00,
2013-03-06 00:48:00,34.2,32.8,29.80,North,360,0.0,0.0,95,0.00,,OVC048,0.00,VWS V14.01,2013-03-06 05:48:00,
2013-03-06 00:53:00,34.2,32.8,29.79,North,360,0.0,0.0,95,0.00,,,0.00,VWS V14.01,2013-03-06 05:53:00,
2013-03-06 00:58:00,34.1,32.7,29.79,North,360,0.0,0.0,95,0.00,,,0.00,VWS V14.01,2013-03-06 05:58:00,
2013-03-06 01:07:00,34.0,32.6,29.79,North,360,0.0,0.0,95,0.00,,,0.00,VWS V14.01,2013-03-06 06:07:00,
2013-03-06 01:13:00,33.7,32.3,29.78,North,360,0.0,0.0,95,0.00,,,0.00,VWS V14.01,2013-03-06 06:13:00,
2013-03-06 01:18:00,33.5,32.4,29.77,North,360,0.0,0.0,96,0.00,,,0.00,VWS V14.01,2013-03-06 06:18:00,
2013-03-06 01:23:00,33.5,32.4,29.77,North,360,0.0,0.0,96,0.00,,,0.00,VWS V14.01,2013-03-06 06:23:00,
2013-03-06 01:33:00,33.6,32.5,29.75,North,360,0.0,0.0,96,0.00,,,0.00,VWS V14.01,2013-03-06 06:33:00,
2013-03-06 01:38:00,33.8,32.7,29.75,North,360,0.0,0.0,96,0.00,,,0.00,VWS V14.01,2013-03-06 06:38:00,
2013-03-06 01:48:00,33.8,32.7,29.74,North,360,0.0,0.0,96,0.00,,,0.00,VWS V14.01,2013-03-06 06:48:00,
2013-03-06 01:53:00,33.8,32.7,29.74,North,360,0.0,0.0,96,0.00,,,0.00,VWS V14.01,2013-03-06 06:53:00,
2013-03-06 02:07:00,33.8,32.7,29.74,North,360,0.0,0.0,96,0.00,,,0.00,VWS V14.01,2013-03-06 07:07:00,
2013-03-06 02:13:00,33.8,33.0,29.73,North,360,0.0,0.0,97,0.00,,,0.00,VWS V14.01,2013-03-06 07:13:00,
2013-03-06 02:18:00,33.9,33.1,29.73,North,360,0.0,0.0,97,0.00,,,0.00,VWS V14.01,2013-03-06 07:18:00,
2013-03-06 02:25:00,33.7,32.9,29.73,North,360,0.0,0.0,97,0.00,,,0.00,VWS V14.01,2013-03-06 07:25:00,
2013-03-06 02:33:00,33.9,32.8,29.73,North,360,0.0,0.0,96,0.00,,,0.00,VWS V14.01,2013-03-06 07:33:00,
2013-03-06 02:38:00,33.7,32.9,29.73,North,360,0.0,0.0,97,0.00,,,0.00,VWS V14.01,2013-03-06 07:38:00,
2013-03-06 02:43:00,33.5,32.7,29.73,North,360,0.0,0.0,97,0.00,,,0.00,VWS V14.01,2013-03-06 07:43:00,
2013-03-06 02:48:00,33.3,32.5,29.72,North,360,0.0,0.0,97,0.00,,,0.00,VWS V14.01,2013-03-06 07:48:00,
2013-03-06 02:53:00,33.1,32.3,29.72,North,360,0.0,0.0,97,0.00,,,0.00,VWS V14.01,2013-03-06 07:53:00,
2013-03-06 02:58:00,33.2,32.4,29.70,North,360,0.0,0.0,97,0.00,,,0.00,VWS V14.01,2013-03-06 07:58:00,
2013-03-06 03:07:00,33.1,32.3,29.70,North,360,0.0,0.0,97,0.00,,,0.00,VWS V14.01,2013-03-06 08:07:00,
2013-03-06 03:13:00,33.2,32.4,29.69,North,360,0.0,0.0,97,0.00,,,0.00,VWS V14.01,2013-03-06 08:13:00,
2013-03-06 03:18:00,33.3,32.5,29.68,North,360,0.0,0.0,97,0.00,,,0.00,VWS V14.01,2013-03-06 08:18:00,
2013-03-06 03:23:00,33.2,32.4,29.68,North,360,0.0,0.0,97,0.00,,,0.00,VWS V14.01,2013-03-06 08:23:00,
2013-03-06 03:28:00,33.3,32.8,29.67,North,360,0.0,0.0,98,0.00,,,0.00,VWS V14.01,2013-03-06 08:28:00,
2013-03-06 03:33:00,33.2,32.7,29.67,North,360,0.0,0.0,98,0.00,,,0.00,VWS V14.01,2013-03-06 08:33:00,
2013-03-06 03:38:00,33.3,32.8,29.66,North,360,0.0,0.0,98,0.00,,,0.00,VWS V14.01,2013-03-06 08:38:00,
2013-03-06 03:43:00,33.4,32.9,29.66,North,360,0.0,0.0,98,0.00,,,0.00,VWS V14.01,2013-03-06 08:43:00,
2013-03-06 03:48:00,33.6,33.1,29.66,North,360,0.0,0.0,98,0.00,,,0.00,VWS V14.01,2013-03-06 08:48:00,
2013-03-06 03:53:00,33.6,33.1,29.66,North,360,0.0,0.0,98,0.00,,,0.00,VWS V14.01,2013-03-06 08:53:00,
2013-03-06 03:58:00,33.5,33.0,29.66,North,360,0.0,0.0,98,0.00,,,0.00,VWS V14.01,2013-03-06 08:58:00,
2013-03-06 04:07:00,33.7,33.2,29.66,North,360,0.0,0.0,98,0.00,,,0.00,VWS V14.01,2013-03-06 09:07:00,
2013-03-06 04:13:00,33.5,33.0,29.66,North,360,0.0,0.0,98,0.00,,,0.00,VWS V14.01,2013-03-06 09:13:00,
2013-03-06 04:18:00,33.5,33.0,29.66,North,360,0.0,0.0,98,0.00,,,0.00,VWS V14.01,2013-03-06 09:18:00,
2013-03-06 04:23:00,33.4,32.9,29.66,North,360,0.0,0.0,98,0.00,,,0.00,VWS V14.01,2013-03-06 09:23:00,
2013-03-06 04:33:00,33.3,32.8,29.66,North,360,0.0,0.0,98,0.00,,,0.00,VWS V14.01,2013-03-06 09:33:00,
2013-03-06 04:38:00,33.3,32.8,29.65,North,360,0.0,0.0,98,0.00,,,0.00,VWS V14.01,2013-03-06 09:38:00,
2013-03-06 04:43:00,33.5,33.0,29.65,North,360,0.0,0.0,98,0.00,,,0.00,VWS V14.01,2013-03-06 09:43:00,
2013-03-06 04:48:00,33.5,33.0,29.65,North,360,0.0,0.0,98,0.00,,,0.00,VWS V14.01,2013-03-06 09:48:00,
2013-03-06 04:58:00,33.5,33.0,29.64,North,360,0.0,0.0,98,0.00,,,0.00,VWS V14.01,2013-03-06 09:58:00,
2013-03-06 05:07:00,33.5,33.0,29.64,North,360,0.0,0.0,98,0.00,,,0.00,VWS V14.01,2013-03-06 10:07:00,
2013-03-06 05:13:00,33.2,32.7,29.65,North,360,0.0,0.0,98,0.00,,,0.00,VWS V14.01,2013-03-06 10:13:00,
2013-03-06 05:18:00,33.2,33.2,29.65,North,360,0.0,0.0,100,0.00,,,0.00,VWS V14.01,2013-03-06 10:18:00,
2013-03-06 05:23:00,33.3,32.8,29.65,North,360,0.0,0.0,98,0.00,,,0.00,VWS V14.01,2013-03-06 10:23:00,
2013-03-06 05:28:00,33.4,32.9,29.65,North,360,0.0,0.0,98,0.00,,,0.00,VWS V14.01,2013-03-06 10:28:00,
2013-03-06 05:38:00,33.5,33.0,29.64,North,360,0.0,0.0,98,0.00,,,0.00,VWS V14.01,2013-03-06 10:38:00,
2013-03-06 05:48:00,33.6,33.1,29.63,North,360,0.0,0.0,98,0.00,,,0.00,VWS V14.01,2013-03-06 10:48:00,
2013-03-06 05:53:00,33.7,33.2,29.63,North,360,0.0,0.0,98,0.00,,,0.00,VWS V14.01,2013-03-06 10:53:00,
2013-03-06 05:58:00,33.8,33.3,29.62,North,360,0.0,0.0,98,0.00,,,0.00,VWS V14.01,2013-03-06 10:58:00,
2013-03-06 06:07:00,33.9,33.4,29.62,North,360,0.0,0.0,98,0.00,,,0.00,VWS V14.01,2013-03-06 11:07:00,
2013-03-06 06:13:00,33.9,33.4,29.62,North,360,0.0,0.0,98,0.00,,,0.00,VWS V14.01,2013-03-06 11:13:00,
2013-03-06 06:18:00,33.9,33.4,29.62,North,360,0.0,0.0,98,0.00,,,0.00,VWS V14.01,2013-03-06 11:18:00,
2013-03-06 06:25:00,33.9,33.4,29.61,North,360,0.0,0.0,98,0.00,,,0.00,VWS V14.01,2013-03-06 11:25:00,
2013-03-06 06:33:00,34.0,33.5,29.61,North,360,0.0,0.0,98,0.00,,,0.00,VWS V14.01,2013-03-06 11:33:00,
2013-03-06 06:38:00,34.0,33.5,29.61,North,360,0.0,0.0,98,0.00,,,0.00,VWS V14.01,2013-03-06 11:38:00,
2013-03-06 06:43:00,34.1,33.5,29.61,North,360,0.0,0.0,98,0.00,,,0.00,VWS V14.01,2013-03-06 11:43:00,
2013-03-06 06:48:00,34.1,33.5,29.61,North,360,0.0,0.0,98,0.00,,,0.00,VWS V14.01,2013-03-06 11:48:00,
2013-03-06 06:53:00,34.2,33.7,29.61,North,360,0.0,0.0,98,0.00,,,0.00,VWS V14.01,2013-03-06 11:53:00,
2013-03-06 06:58:00,34.3,33.8,29.61,North,360,0.0,0.0,98,0.00,,,0.00,VWS V14.01,2013-03-06 11:58:00,
2013-03-06 07:07:00,34.4,33.8,29.61,North,360,0.0,0.0,98,0.00,,,0.00,VWS V14.01,2013-03-06 12:07:00,
2013-03-06 07:13:00,34.3,33.8,29.62,North,360,0.0,0.0,98,0.00,,,0.00,VWS V14.01,2013-03-06 12:13:00,
2013-03-06 07:18:00,34.4,33.8,29.62,North,360,0.0,0.0,98,0.00,,,0.00,VWS V14.01,2013-03-06 12:18:00,
2013-03-06 07:23:00,34.3,33.8,29.62,North,360,0.0,0.0,98,0.00,,,0.00,VWS V14.01,2013-03-06 12:23:00,
2013-03-06 07:28:00,34.4,33.8,29.62,North,360,0.0,0.0,98,0.00,,,0.00,VWS V14.01,2013-03-06 12:28:00,
2013-03-06 07:33:00,34.4,33.8,29.62,North,360,0.0,0.0,98,0.00,,,0.00,VWS V14.01,2013-03-06 12:33:00,
2013-03-06 07:38:00,34.5,34.0,29.62,North,360,0.0,0.0,98,0.00,,,0.00,VWS V14.01,2013-03-06 12:38:00,
2013-03-06 07:43:00,34.5,34.0,29.62,North,360,0.0,0.0,98,0.00,,,0.00,VWS V14.01,2013-03-06 12:43:00,
2013-03-06 07:48:00,34.5,34.0,29.62,North,360,0.0,0.0,98,0.00,,,0.00,VWS V14.01,2013-03-06 12:48:00,
2013-03-06 07:58:00,34.5,34.0,29.62,North,360,0.0,0.0,98,0.00,,,0.00,VWS V14.01,2013-03-06 12:58:00,
2013-03-06 08:07:00,34.3,33.8,29.62,North,360,0.0,0.0,98,0.00,,,0.00,VWS V14.01,2013-03-06 13:07:00,
2013-03-06 08:13:00,34.1,33.5,29.62,North,360,0.0,0.0,98,0.00,,,0.00,VWS V14.01,2013-03-06 13:13:00,
2013-03-06 08:18:00,34.0,33.5,29.62,North,360,0.0,0.0,98,0.00,,,0.00,VWS V14.01,2013-03-06 13:18:00,
2013-03-06 08:28:00,33.6,33.1,29.62,North,360,0.0,0.0,98,0.00,,,0.00,VWS V14.01,2013-03-06 13:28:00,
2013-03-06 08:33:00,33.5,33.0,29.62,North,360,0.0,0.0,98,0.00,,,0.00,VWS V14.01,2013-03-06 13:33:00,
2013-03-06 08:38:00,33.7,33.2,29.62,North,360,0.0,0.0,98,0.00,,,0.00,VWS V14.01,2013-03-06 13:38:00,
2013-03-06 08:43:00,33.7,33.2,29.62,North,360,0.0,0.0,98,0.00,,,0.00,VWS V14.01,2013-03-06 13:43:00,
2013-03-06 08:48:00,33.4,32.9,29.62,North,360,0.0,0.0,98,0.00,,,0.00,VWS V14.01,2013-03-06 13:48:00,
2013-03-06 08:53:00,33.4,32.9,29.62,North,360,0.0,0.0,98,0.00,,,0.00,VWS V14.01,2013-03-06 13:53:00,
2013-03-06 08:58:00,33.3,32.8,29.62,North,360,0.0,0.0,98,0.00,,,0.00,VWS V14.01,2013-03-06 13:58:00,
2013-03-06 09:07:00,33.5,33.0,29.62,North,360,0.0,0.0,98,0.00,,,0.00,VWS V14.01,2013-03-06 14:07:00,
2013-03-06 09:13:00,33.3,32.8,29.62,North,360,0.0,0.0,98,0.00,,,0.00,VWS V14.01,2013-03-06 14:13:00,
2013-03-06 10:30:00,34.0,33.5,29.62,North,0,0.0,0.0,98,0.00,,,0.00,VWS V14.01,2013-03-06 15:30:00,
2013-03-06 10:44:00,34.4,33.8,29.62,North,0,0.0,0.0,98,0.00,,,0.00,VWS V14.01,2013-03-06 15:44:00,
2013-03-06 10:53:00,34.6,34.0,29.62,North,360,0.0,0.0,98,0.00,,,0.00,VWS V14.01,2013-03-06 15:53:00,
2013-03-06 10:58:00,34.7,34.2,29.62,North,360,0.0,0.0,98,0.00,,,0.00,VWS V14.01,2013-03-06 15:58:00,
2013-03-06 11:03:00,34.9,34.3,29.62,North,360,0.0,0.0,98,0.00,,,0.00,VWS V14.01,2013-03-06 16:03:00,
2013-03-06 11:13:00,35.1,34.5,29.62,North,360,0.0,0.0,98,0.00,,,0.00,VWS V14.01,2013-03-06 16:13:00,
2013-03-06 11:18:00,35.1,34.5,29.62,North,360,0.0,0.0,98,0.00,,,0.00,VWS V14.01,2013-03-06 16:18:00,
2013-03-06 11:23:00,35.4,34.8,29.62,North,360,0.0,0.0,98,0.00,,,0.00,VWS V14.01,2013-03-06 16:23:00,
2013-03-06 11:28:00,35.5,35.0,29.62,North,360,0.0,0.0,98,0.00,,,0.00,VWS V14.01,2013-03-06 16:28:00,
2013-03-06 11:38:00,35.6,34.8,29.63,North,360,0.0,0.0,97,0.00,,,0.00,VWS V14.01,2013-03-06 16:38:00,
2013-03-06 11:48:00,35.1,34.3,29.64,North,360,0.0,0.0,97,0.00,,,0.00,VWS V14.01,2013-03-06 16:48:00,
2013-03-06 11:53:00,35.3,34.5,29.64,North,360,0.0,0.0,97,0.00,,,0.00,VWS V14.01,2013-03-06 16:53:00,
2013-03-06 11:58:00,35.5,34.7,29.63,North,360,0.0,0.0,97,0.00,,,0.00,VWS V14.01,2013-03-06 16:58:00,
2013-03-06 12:07:00,35.6,34.8,29.64,North,360,0.0,0.0,97,0.00,,,0.00,VWS V14.01,2013-03-06 17:07:00,
2013-03-06 12:13:00,35.1,34.3,29.64,North,360,0.0,0.0,97,0.00,,,0.00,VWS V14.01,2013-03-06 17:13:00,
2013-03-06 12:18:00,34.8,34.0,29.64,North,360,0.0,0.0,97,0.00,,,0.00,VWS V14.01,2013-03-06 17:18:00,
2013-03-06 12:23:00,34.5,33.7,29.64,North,360,0.0,0.0,97,0.00,,,0.00,VWS V14.01,2013-03-06 17:23:00,
2013-03-06 12:28:00,34.5,33.7,29.64,North,360,0.0,0.0,97,0.00,,,0.00,VWS V14.01,2013-03-06 17:28:00,
2013-03-06 12:38:00,34.6,33.8,29.64,North,360,0.0,0.0,97,0.00,,,0.00,VWS V14.01,2013-03-06 17:38:00,
2013-03-06 12:43:00,34.5,33.7,29.65,North,360,0.0,0.0,97,0.00,,,0.00,VWS V14.01,2013-03-06 17:43:00,
2013-03-06 12:48:00,34.5,33.7,29.65,North,360,0.0,0.0,97,0.00,,,0.00,VWS V14.01,2013-03-06 17:48:00,
2013-03-06 12:53:00,34.7,33.9,29.65,North,360,0.0,0.0,97,0.00,,,0.00,VWS V14.01,2013-03-06 17:53:00,
2013-03-06 12:58:00,34.9,34.1,29.64,North,360,0.0,0.0,97,0.00,,,0.00,VWS V14.01,2013-03-06 17:58:00,
2013-03-06 13:07:00,35.2,34.4,29.65,North,360,0.0,0.0,97,0.00,,,0.00,VWS V14.01,2013-03-06 18:07:00,
2013-03-06 13:14:00,35.5,34.7,29.65,North,360,0.0,0.0,97,0.00,,,0.00,VWS V14.01,2013-03-06 18:14:00,
2013-03-06 13:23:00,35.8,34.7,29.66,North,360,0.0,0.0,96,0.00,,,0.00,VWS V14.01,2013-03-06 18:23:00,
2013-03-06 13:28:00,35.9,34.8,29.66,North,360,0.0,0.0,96,0.00,,,0.00,VWS V14.01,2013-03-06 18:28:00,
2013-03-06 13:33:00,36.2,35.1,29.66,North,360,0.0,0.0,96,0.00,,,0.00,VWS V14.01,2013-03-06 18:33:00,
2013-03-06 13:38:00,36.3,35.2,29.66,North,360,0.0,0.0,96,0.00,,,0.00,VWS V14.01,2013-03-06 18:38:00,
2013-03-06 13:43:00,36.3,35.2,29.66,North,360,0.0,0.0,96,0.00,,,0.00,VWS V14.01,2013-03-06 18:43:00,
2013-03-06 13:53:00,36.2,35.1,29.68,North,360,0.0,0.0,96,0.00,,,0.00,VWS V14.01,2013-03-06 18:53:00,
2013-03-06 13:58:00,36.1,35.0,29.67,North,360,0.0,0.0,96,0.00,,OVC015,0.00,VWS V14.01,2013-03-06 18:58:00,
2013-03-06 14:07:00,36.0,34.9,29.68,North,360,0.0,0.0,96,0.00,,OVC015,0.00,VWS V14.01,2013-03-06 19:07:00,
2013-03-06 14:13:00,36.2,35.1,29.68,North,360,0.0,0.0,96,0.00,,OVC015,0.00,VWS V14.01,2013-03-06 19:13:00,
2013-03-06 14:18:00,36.4,35.3,29.69,North,360,0.0,0.0,96,0.00,,OVC015,0.00,VWS V14.01,2013-03-06 19:18:00,
2013-03-06 14:23:00,36.5,35.1,29.69,North,360,0.0,0.0,95,0.00,,OVC015,0.00,VWS V14.01,2013-03-06 19:23:00,
2013-03-06 14:28:00,36.5,35.1,29.70,North,360,0.0,0.0,95,0.00,,OVC015,0.00,VWS V14.01,2013-03-06 19:28:00,
2013-03-06 14:33:00,36.7,35.3,29.70,North,360,0.0,0.0,95,0.00,,OVC015,0.00,VWS V14.01,2013-03-06 19:33:00,
2013-03-06 14:38:00,36.7,35.3,29.71,North,360,0.0,0.0,95,0.00,,OVC015,0.00,VWS V14.01,2013-03-06 19:38:00,
2013-03-06 14:43:00,36.7,35.3,29.71,North,360,0.0,0.0,95,0.00,,OVC015,0.00,VWS V14.01,2013-03-06 19:43:00,
2013-03-06 14:53:00,36.7,35.3,29.72,North,360,0.0,0.0,95,0.00,,OVC015,0.00,VWS V14.01,2013-03-06 19:53:00,
2013-03-06 14:58:00,36.6,35.2,29.72,North,360,0.0,0.0,95,0.00,,OVC015,0.00,VWS V14.01,2013-03-06 19:58:00,
2013-03-06 15:07:00,36.5,35.4,29.73,North,360,0.0,0.0,96,0.00,,OVC015,0.00,VWS V14.01,2013-03-06 20:07:00,
2013-03-06 15:13:00,36.4,35.0,29.74,North,360,0.0,0.0,95,0.00,,OVC015,0.00,VWS V14.01,2013-03-06 20:13:00,
2013-03-06 15:18:00,36.5,35.4,29.75,North,360,0.0,0.0,96,0.00,,OVC015,0.00,VWS V14.01,2013-03-06 20:18:00,
2013-03-06 15:28:00,36.6,35.5,29.75,North,360,0.0,0.0,96,0.00,,OVC015,0.00,VWS V14.01,2013-03-06 20:28:00,
2013-03-06 15:33:00,36.7,35.3,29.76,North,360,0.0,0.0,95,0.00,,OVC015,0.00,VWS V14.01,2013-03-06 20:33:00,
2013-03-06 15:38:00,36.7,35.3,29.76,North,360,0.0,0.0,95,0.00,,OVC015,0.00,VWS V14.01,2013-03-06 20:38:00,
2013-03-06 15:43:00,36.7,35.6,29.76,North,360,0.0,0.0,96,0.00,,OVC015,0.00,VWS V14.01,2013-03-06 20:43:00,
2013-03-06 15:48:00,36.9,35.5,29.76,North,360,0.0,0.0,95,0.00,,OVC015,0.00,VWS V14.01,2013-03-06 20:48:00,
2013-03-06 15:53:00,36.9,35.5,29.77,North,360,0.0,0.0,95,0.00,,OVC015,0.00,VWS V14.01,2013-03-06 20:53:00,
2013-03-06 15:58:00,37.0,35.6,29.77,North,360,0.0,0.0,95,0.00,,OVC015,0.00,VWS V14.01,2013-03-06 20:58:00,
2013-03-06 16:03:00,37.1,35.7,29.78,North,360,0.0,0.0,95,0.00,,OVC015,0.00,VWS V14.01,2013-03-06 21:03:00,
2013-03-06 16:08:00,37.1,35.7,29.79,North,360,0.0,0.0,95,0.00,,OVC015,0.00,VWS V14.01,2013-03-06 21:08:00,
2013-03-06 16:13:00,37.1,35.7,29.80,North,360,0.0,0.0,95,0.00,,OVC015,0.00,VWS V14.01,2013-03-06 21:13:00,
2013-03-06 16:18:00,37.1,35.7,29.80,North,360,0.0,0.0,95,0.00,,OVC015,0.00,VWS V14.01,2013-03-06 21:18:00,
2013-03-06 16:23:00,37.1,35.7,29.80,North,360,0.0,0.0,95,0.00,,OVC015,0.00,VWS V14.01,2013-03-06 21:23:00,
2013-03-06 16:33:00,37.3,35.9,29.81,North,360,0.0,0.0,95,0.00,,OVC015,0.00,VWS V14.01,2013-03-06 21:33:00,
2013-03-06 16:38:00,37.4,35.7,29.82,North,360,0.0,0.0,94,0.00,,OVC015,0.00,VWS V14.01,2013-03-06 21:38:00,
2013-03-06 16:48:00,37.5,36.1,29.83,North,360,0.0,0.0,95,0.00,,OVC015,0.00,VWS V14.01,2013-03-06 21:48:00,
2013-03-06 16:53:00,37.6,35.9,29.83,North,360,0.0,0.0,94,0.00,,OVC015,0.00,VWS V14.01,2013-03-06 21:53:00,
2013-03-06 16:58:00,37.6,36.2,29.83,North,360,0.0,0.0,95,0.00,,-RA,0.00,VWS V14.01,2013-03-06 21:58:00,
2013-03-06 17:08:00,37.7,36.3,29.84,North,360,0.0,0.0,95,0.00,,-RA,0.00,VWS V14.01,2013-03-06 22:08:00,
2013-03-06 17:13:00,37.7,36.3,29.85,North,360,0.0,0.0,95,0.00,,-RA,0.00,VWS V14.01,2013-03-06 22:13:00,
2013-03-06 17:18:00,37.8,36.1,29.86,North,360,0.0,0.0,94,0.00,,-RA,0.00,VWS V14.01,2013-03-06 22:18:00,
2013-03-06 17:28:00,37.8,36.1,29.86,North,360,0.0,0.0,94,0.00,,-RA,0.00,VWS V14.01,2013-03-06 22:28:00,
2013-03-06 17:33:00,37.8,36.1,29.87,North,360,0.0,0.0,94,0.00,,-RA,0.00,VWS V14.01,2013-03-06 22:33:00,
2013-03-06 17:38:00,37.9,36.2,29.88,North,360,0.0,0.0,94,0.00,,-RA,0.00,VWS V14.01,2013-03-06 22:38:00,
2013-03-06 17:43:00,37.8,36.1,29.88,North,360,0.0,0.0,94,0.00,,-RA,0.00,VWS V14.01,2013-03-06 22:43:00,
2013-03-06 17:48:00,37.8,36.1,29.89,North,360,0.0,0.0,94,0.00,,-RA,0.00,VWS V14.01,2013-03-06 22:48:00,
2013-03-06 17:54:00,37.8,36.1,29.89,North,360,0.0,0.0,94,0.00,,-RA,0.00,VWS V14.01,2013-03-06 22:54:00,
2013-03-06 18:07:00,37.8,36.1,29.90,North,360,0.0,0.0,94,0.00,,-RA,0.00,VWS V14.01,2013-03-06 23:07:00,
2013-03-06 18:13:00,38.0,36.3,29.91,North,360,0.0,0.0,94,0.00,,-RA,0.00,VWS V14.01,2013-03-06 23:13:00,
2013-03-06 18:18:00,38.2,36.2,29.91,North,360,0.0,0.0,92,0.00,,-RA,0.00,VWS V14.01,2013-03-06 23:18:00,
2013-03-06 18:23:00,38.2,36.2,29.91,North,360,0.0,0.0,92,0.00,,-RA,0.00,VWS V14.01,2013-03-06 23:23:00,
2013-03-06 18:28:00,38.3,36.3,29.92,North,360,0.0,0.0,92,0.00,,-RA,0.00,VWS V14.01,2013-03-06 23:28:00,
2013-03-06 18:33:00,38.4,36.1,29.92,North,360,0.0,0.0,91,0.00,,-RA,0.00,VWS V14.01,2013-03-06 23:33:00,
2013-03-06 18:43:00,38.4,36.1,29.93,North,360,0.0,0.0,91,0.00,,-RA,0.00,VWS V14.01,2013-03-06 23:43:00,
2013-03-06 18:53:00,38.4,36.1,29.93,North,360,0.0,0.0,91,0.00,,-RA,0.00,VWS V14.01,2013-03-06 23:53:00,
2013-03-06 18:58:00,38.6,36.0,29.94,North,360,0.0,0.0,90,0.00,,-RA,0.00,VWS V14.01,2013-03-06 23:58:00,
2013-03-06 19:03:00,38.7,35.8,29.94,North,360,0.0,0.0,89,0.00,,-RA,0.00,VWS V14.01,2013-03-07 00:03:00,
2013-03-06 19:13:00,38.8,35.6,29.94,North,360,0.0,0.0,88,0.00,,-RA,0.00,VWS V14.01,2013-03-07 00:13:00,
2013-03-06 19:23:00,38.9,35.7,29.95,North,360,0.0,0.0,88,0.00,,-RA,0.00,VWS V14.01,2013-03-07 00:23:00,
2013-03-06 19:28:00,39.1,35.6,29.95,North,360,0.0,0.0,87,0.00,,-RA,0.00,VWS V14.01,2013-03-07 00:28:00,
2013-03-06 19:33:00,39.1,35.6,29.95,North,360,0.0,0.0,87,0.00,,-RA,0.00,VWS V14.01,2013-03-07 00:33:00,
2013-03-06 19:43:00,39.1,35.6,29.96,North,360,0.0,0.0,87,0.00,,-RA,0.00,VWS V14.01,2013-03-07 00:43:00,
2013-03-06 19:48:00,39.2,35.4,29.96,North,360,0.0,0.0,86,0.00,,-RA,0.00,VWS V14.01,2013-03-07 00:48:00,
2013-03-06 19:53:00,39.2,35.7,29.96,North,360,0.0,0.0,87,0.00,,-RA,0.00,VWS V14.01,2013-03-07 00:53:00,
2013-03-06 20:07:00,39.3,35.8,29.96,North,360,0.0,0.0,87,0.00,,OVC090,0.00,VWS V14.01,2013-03-07 01:07:00,
2013-03-06 20:13:00,39.4,35.6,29.96,North,360,0.0,0.0,86,0.00,,OVC090,0.00,VWS V14.01,2013-03-07 01:13:00,
2013-03-06 20:18:00,39.3,35.5,29.97,North,360,0.0,0.0,86,0.00,,OVC090,0.00,VWS V14.01,2013-03-07 01:18:00,
2013-03-06 20:23:00,39.3,35.5,29.97,North,360,0.0,0.0,86,0.00,,OVC090,0.00,VWS V14.01,2013-03-07 01:23:00,
2013-03-06 20:28:00,39.3,35.5,29.97,North,360,0.0,0.0,86,0.00,,OVC090,0.00,VWS V14.01,2013-03-07 01:28:00,
2013-03-06 20:33:00,39.2,35.4,29.96,North,360,0.0,0.0,86,0.00,,OVC090,0.00,VWS V14.01,2013-03-07 01:33:00,
2013-03-06 20:43:00,39.2,35.4,29.97,North,360,0.0,0.0,86,0.00,,OVC090,0.00,VWS V14.01,2013-03-07 01:43:00,
2013-03-06 20:48:00,39.1,35.6,29.97,North,360,0.0,0.0,87,0.00,,OVC090,0.00,VWS V14.01,2013-03-07 01:48:00,
2013-03-06 20:53:00,39.2,35.4,29.97,North,360,0.0,0.0,86,0.00,,OVC090,0.00,VWS V14.01,2013-03-07 01:53:00,
2013-03-06 21:07:00,39.0,35.5,29.97,North,360,0.0,0.0,87,0.00,,OVC100,0.00,VWS V14.01,2013-03-07 02:07:00,
2013-03-06 21:13:00,39.0,34.8,29.97,North,360,0.0,0.0,85,0.00,,OVC100,0.00,VWS V14.01,2013-03-07 02:13:00,
2013-03-06 21:18:00,38.9,35.1,29.97,North,360,0.0,0.0,86,0.00,,OVC100,0.00,VWS V14.01,2013-03-07 02:18:00,
2013-03-06 21:23:00,38.8,34.7,29.97,North,360,0.0,0.0,85,0.00,,OVC100,0.00,VWS V14.01,2013-03-07 02:23:00,
2013-03-06 21:28:00,38.9,34.8,29.97,North,360,0.0,0.0,85,0.00,,OVC100,0.00,VWS V14.01,2013-03-07 02:28:00,
2013-03-06 21:33:00,38.9,34.8,29.97,North,360,0.0,0.0,85,0.00,,OVC100,0.00,VWS V14.01,2013-03-07 02:33:00,
2013-03-06 21:38:00,38.9,34.4,29.97,North,360,0.0,0.0,84,0.00,,OVC100,0.00,VWS V14.01,2013-03-07 02:38:00,
2013-03-06 21:48:00,38.8,34.3,29.97,North,360,0.0,0.0,84,0.00,,OVC100,0.00,VWS V14.01,2013-03-07 02:48:00,
2013-03-06 21:53:00,38.9,34.1,29.97,North,360,0.0,0.0,83,0.00,,OVC100,0.00,VWS V14.01,2013-03-07 02:53:00,
2013-03-06 22:03:00,39.0,33.9,29.98,North,360,0.0,0.0,82,0.00,,OVC060,0.00,VWS V14.01,2013-03-07 03:03:00,
2013-03-06 22:08:00,39.0,33.9,29.98,North,360,0.0,0.0,82,0.00,,OVC060,0.00,VWS V14.01,2013-03-07 03:08:00,
2013-03-06 22:13:00,39.0,33.5,29.98,North,360,0.0,0.0,81,0.00,,OVC060,0.00,VWS V14.01,2013-03-07 03:13:00,
2013-03-06 22:18:00,39.0,33.5,29.98,North,360,0.0,0.0,81,0.00,,OVC060,0.00,VWS V14.01,2013-03-07 03:18:00,
2013-03-06 22:25:00,39.0,33.2,29.99,North,360,0.0,0.0,79,0.00,,OVC060,0.00,VWS V14.01,2013-03-07 03:25:00,
2013-03-06 22:33:00,38.9,33.4,29.99,North,360,0.0,0.0,81,0.00,,OVC060,0.00,VWS V14.01,2013-03-07 03:33:00,
2013-03-06 22:44:00,39.2,33.1,29.99,North,360,0.0,0.0,78,0.00,,OVC060,0.00,VWS V14.01,2013-03-07 03:44:00,
2013-03-06 22:53:00,39.0,33.2,30.00,North,360,0.0,0.0,79,0.00,,OVC060,0.00,VWS V14.01,2013-03-07 03:53:00,
2013-03-06 23:07:00,39.1,33.0,30.00,North,360,0.0,0.0,78,0.00,,CLR,0.00,VWS V14.01,2013-03-07 04:07:00,
2013-03-06 23:13:00,39.6,32.8,30.00,North,360,0.0,0.0,76,0.00,,CLR,0.00,VWS V14.01,2013-03-07 04:13:00,
2013-03-06 23:18:00,39.7,32.8,30.00,North,360,0.0,0.0,76,0.00,,CLR,0.00,VWS V14.01,2013-03-07 04:18:00,
2013-03-06 23:23:00,39.7,32.8,30.00,North,360,0.0,0.0,76,0.00,,CLR,0.00,VWS V14.01,2013-03-07 04:23:00,
2013-03-06 23:28:00,40.0,32.4,30.00,North,360,0.0,0.0,74,0.00,,CLR,0.00,VWS V14.01,2013-03-07 04:28:00,
2013-03-06 23:38:00,40.0,32.4,30.01,North,360,0.0,0.0,74,0.00,,CLR,0.00,VWS V14.01,2013-03-07 04:38:00,
2013-03-06 23:43:00,40.0,32.4,30.01,North,360,0.0,0.0,74,0.00,,CLR,0.00,VWS V14.01,2013-03-07 04:43:00,
2013-03-06 23:48:00,39.8,32.6,30.01,North,360,0.0,0.0,75,0.00,,CLR,0.00,VWS V14.01,2013-03-07 04:48:00,
2013-03-06 23:58:00,40.1,32.5,30.01,North,360,0.0,0.0,74,0.00,,SCT130,0.00,VWS V14.01,2013-03-07 04:58:00,